Total_Precipitation_Accumulation
0.08 0.09 0.11 0.13 0.15 0.17 0.25 0.23 0.28 0.25 0.27 0.29 0.27 0.27 0.26 0.26 0.26 0.26 0.25 0.24 0.23 0.22 0.28 0.29 0.28 0.25 0.23 0.23 0.29 0.29 0.25 0.25 0.23 0.23 0.26 0.28 0.31 0.37 0.36 0.39 0.61 0.61 0.39 0.13 0.04 0.02 0.01 0.01 0.02 0.05 0.09 0.15 0.22 0.24 0.23 0.14 0.13 0.14 0.13 0.17 0.22 0.28 0.31
0.10 0.10 0.11 0.13 0.14 0.14 0.16 0.24 0.24 0.24 0.28 0.30 0.29 0.28 0.30 0.33 0.37 0.33 0.33 0.30 0.30 0.27 0.29 0.34 0.37 0.32 0.27 0.26 0.34 0.36 0.36 0.33 0.29 0.31 0.31 0.27 0.30 0.34 0.34 0.29 0.41 0.50 0.40 0.25 0.08 0.04 0.02 0.02 0.01 0.04 0.05 0.10 0.13 0.19 0.25 0.25 0.20 0.17 0.17 0.17 0.21 0.25 0.24
0.12 0.12 0.13 0.13 0.12 0.12 0.15 0.16 0.19 0.17 0.23 0.27 0.28 0.28 0.27 0.28 0.29 0.30 0.30 0.29 0.28 0.27 0.27 0.31 0.35 0.35 0.32 0.32 0.43 0.43 0.43 0.40 0.39 0.36 0.33 0.32 0.25 0.24 0.22 0.23 0.33 0.45 0.43 0.29 0.19 0.08 0.06 0.04 0.03 0.04 0.06 0.08 0.12 0.15 0.14 0.23 0.27 0.26 0.25 0.24 0.24 0.24 0.23
0.11 0.12 0.12 0.14 0.15 0.19 0.14 0.15 0.14 0.16 0.20 0.22 0.21 0.25 0.29 0.26 0.25 0.26 0.29 0.32 0.30 0.30 0.32 0.35 0.37 0.37 0.37 0.42 0.46 0.46 0.46 0.48 0.49 0.48 0.46 0.40 0.32 0.29 0.22 0.17 0.18 0.26 0.36 0.31 0.28 0.16 0.11 0.06 0.06 0.06 0.06 0.06 0.08 0.13 0.19 0.20 0.27 0.29 0.30 0.27 0.30 0.25 0.28
0.11 0.13 0.14 0.14 0.13 0.12 0.11 0.12 0.12 0.13 0.14 0.15 0.17 0.20 0.22 0.24 0.25 0.27 0.28 0.28 0.31 0.35 0.37 0.37 0.37 0.36 0.36 0.40 0.49 0.50 0.51 0.52 0.55 0.57 0.59 0.58 0.50 0.47 0.41 0.35 0.32 0.32 0.31 0.42 0.36 0.26 0.14 0.09 0.08 0.08 0.08 0.08 0.11 0.14 0.19 0.23 0.27 0.31 0.35 0.35 0.33 0.29 0.27
0.15 0.15 0.14 0.14 0.14 0.13 0.16 0.14 0.14 0.14 0.17 0.14 0.13 0.14 0.15 0.17 0.18 0.19 0.21 0.24 0.26 0.28 0.32 0.36 0.36 0.35 0.36 0.39 0.46 0.49 0.46 0.53 0.61 0.64 0.64 0.64 0.66 0.66 0.62 0.62 0.60 0.54 0.54 0.53 0.48 0.37 0.26 0.16 0.14 0.13 0.13 0.12 0.14 0.15 0.18 0.26 0.30 0.30 0.37 0.42 0.45 0.43 0.36
0.17 0.16 0.16 0.16 0.16 0.16 0.16 0.15 0.14 0.14 0.14 0.14 0.14 0.16 0.16 0.16 0.16 0.16 0.16 0.17 0.18 0.19 0.22 0.25 0.28 0.29 0.31 0.35 0.39 0.42 0.42 0.43 0.46 0.57 0.63 0.65 0.67 0.66 0.73 0.84 0.85 0.78 0.72 0.69 0.65 0.60 0.41 0.33 0.28 0.20 0.22 0.15 0.12 0.14 0.15 0.21 0.29 0.37 0.36 0.39 0.39 0.40 0.38
0.19 0.18 0.17 0.19 0.19 0.17 0.16 0.17 0.17 0.16 0.16 0.15 0.15 0.16 0.18 0.17 0.20 0.21 0.21 0.19 0.17 0.17 0.19 0.20 0.21 0.22 0.22 0.23 0.25 0.29 0.30 0.33 0.41 0.48 0.57 0.56 0.60 0.68 0.81 0.89 0.87 0.84 0.83 0.84 0.79 0.68 0.57 0.44 0.35 0.28 0.22 0.22 0.23 0.25 0.25 0.22 0.26 0.33 0.33 0.36 0.38 0.37 0.37
0.23 0.23 0.24 0.20 0.20 0.21 0.19 0.20 0.19 0.18 0.18 0.20 0.20 0.22 0.27 0.26 0.28 0.28 0.27 0.25 0.24 0.22 0.21 0.20 0.20 0.19 0.23 0.20 0.20 0.22 0.25 0.28 0.34 0.43 0.54 0.53 0.56 0.67 0.79 0.86 0.86 0.89 0.91 0.89 0.81 0.74 0.55 0.49 0.41 0.35 0.30 0.28 0.29 0.33 0.32 0.24 0.23 0.30 0.28 0.28 0.30 0.36 0.39
0.25 0.28 0.37 0.26 0.24 0.23 0.26 0.24 0.22 0.20 0.21 0.28 0.39 0.48 0.52 0.55 0.53 0.49 0.47 0.45 0.41 0.35 0.29 0.26 0.24 0.21 0.18 0.19 0.21 0.24 0.27 0.32 0.37 0.40 0.47 0.56 0.60 0.66 0.77 0.84 0.88 0.87 0.81 0.81 0.87 0.75 0.61 0.59 0.49 0.37 0.30 0.27 0.23 0.19 0.16 0.18 0.24 0.29 0.27 0.24 0.30 0.32 0.38
0.34 0.33 0.32 0.31 0.32 0.36 0.33 0.32 0.26 0.25 0.34 0.55 0.76 0.80 0.84 0.78 0.68 0.58 0.54 0.49 0.45 0.40 0.31 0.26 0.23 0.22 0.21 0.22 0.23 0.25 0.29 0.34 0.35 0.43 0.48 0.49 0.54 0.66 0.81 0.95 0.99 0.91 0.79 0.80 0.77 0.68 0.57 0.53 0.45 0.33 0.29 0.27 0.23 0.20 0.20 0.22 0.24 0.29 0.31 0.36 0.40 0.45 0.38
0.41 0.34 0.32 0.33 0.35 0.37 0.36 0.37 0.31 0.36 0.57 0.74 1.00 1.27 1.15 1.00 0.87 0.74 0.64 0.56 0.52 0.46 0.41 0.36 0.33 0.30 0.28 0.29 0.28 0.29 0.31 0.36 0.40 0.44 0.47 0.52 0.60 0.67 0.81 0.97 0.95 0.98 0.92 0.79 0.79 0.76 0.64 0.58 0.46 0.30 0.25 0.24 0.25 0.27 0.25 0.28 0.30 0.37 0.42 0.43 0.42 0.38 0.37
0.39 0.39 0.40 0.41 0.46 0.41 0.40 0.40 0.36 0.47 0.69 0.84 1.16 1.47 1.55 1.23 1.01 0.85 0.69 0.57 0.50 0.46 0.42 0.39 0.41 0.39 0.36 0.32 0.28 0.31 0.32 0.34 0.35 0.37 0.43 0.49 0.54 0.58 0.73 0.96 1.21 1.12 0.92 0.98 0.95 0.90 0.72 0.52 0.46 0.45 0.32 0.22 0.24 0.31 0.38 0.35 0.39 0.44 0.46 0.47 0.44 0.38 0.31
0.47 0.47 0.52 0.53 0.55 0.53 0.52 0.49 0.46 0.55 0.85 1.11 1.35 1.71 1.87 1.35 1.14 0.93 0.77 0.63 0.53 0.46 0.41 0.39 0.40 0.42 0.39 0.33 0.31 0.33 0.34 0.34 0.37 0.38 0.41 0.46 0.52 0.55 0.54 0.65 0.72 0.73 0.69 0.77 0.90 0.99 0.89 0.56 0.50 0.41 0.37 0.48 0.41 0.44 0.52 0.51 0.51 0.51 0.53 0.53 0.52 0.40 0.36
0.55 0.57 0.59 0.61 0.70 0.68 0.66 0.57 0.55 0.75 1.08 1.24 1.47 1.75 2.21 1.59 1.34 1.08 0.83 0.65 0.56 0.52 0.47 0.42 0.40 0.39 0.37 0.34 0.35 0.35 0.34 0.37 0.40 0.42 0.46 0.46 0.45 0.42 0.39 0.37 0.37 0.44 0.58 0.65 0.59 0.65 0.67 0.55 0.44 0.39 0.34 0.31 0.39 0.56 0.61 0.56 0.55 0.52 0.57 0.60 0.55 0.55 0.52
0.49 0.51 0.52 0.52 0.56 0.62 0.61 0.49 0.54 0.82 1.09 1.26 1.53 2.01 1.86 1.71 1.32 1.04 0.83 0.67 0.58 0.52 0.46 0.42 0.43 0.46 0.44 0.40 0.37 0.34 0.54 0.48 0.47 0.54 0.58 0.53 0.43 0.37 0.32 0.30 0.28 0.42 0.52 0.44 0.54 0.57 0.54 0.51 0.47 0.56 0.55 0.57 0.60 0.56 0.56 0.62 0.69 0.73 0.83 0.92 0.95 0.79 0.52
0.39 0.41 0.47 0.48 0.49 0.52 0.47 0.44 0.48 0.68 0.99 1.14 1.44 2.12 2.18 1.83 1.32 0.98 0.78 0.62 0.54 0.50 0.46 0.42 0.42 0.44 0.46 0.42 0.38 0.37 0.62 0.77 0.83 0.83 0.80 0.72 0.59 0.46 0.39 0.33 0.23 0.43 0.86 1.31 1.63 1.85 1.55 1.37 1.36 1.45 1.64 1.64 1.59 1.09 1.03 1.11 1.23 1.10 0.82 0.86 0.91 0.67 0.44
0.41 0.41 0.43 0.47 0.48 0.47 0.49 0.44 0.42 0.57 0.80 1.00 1.33 1.75 1.74 1.63 1.41 1.02 0.81 0.70 0.60 0.55 0.52 0.43 0.46 0.45 0.46 0.46 0.38 0.53 0.77 1.02 1.05 1.24 1.03 0.87 0.76 0.64 0.54 0.37 0.23 0.20 0.25 0.68 1.20 1.51 1.60 1.80 1.58 1.53 1.54 1.76 1.71 1.59 1.12 1.31 1.48 0.99 0.64 0.72 0.68 0.63 0.39
0.41 0.40 0.40 0.42 0.43 0.45 0.50 0.48 0.43 0.48 0.73 0.99 1.39 1.60 1.60 1.51 1.32 1.12 0.88 0.78 0.71 0.59 0.49 0.42 0.39 0.45 0.52 0.48 0.47 0.80 1.05 1.51 1.28 1.29 1.03 0.75 0.74 0.75 0.64 0.41 0.27 0.24 0.25 0.28 0.36 0.46 0.55 0.67 0.86 0.82 0.83 0.73 0.83 0.95 1.09 1.02 1.04 0.87 0.82 0.84 0.68 0.56 0.50
0.34 0.35 0.37 0.39 0.47 0.49 0.49 0.48 0.46 0.49 0.64 1.00 1.34 1.43 1.36 1.31 1.22 1.15 1.00 0.89 0.77 0.76 0.66 0.52 0.46 0.42 0.46 0.74 1.01 1.01 1.38 1.55 2.08 1.42 1.26 0.97 0.94 0.84 0.60 0.33 0.26 0.28 0.31 0.32 0.33 0.32 0.29 0.35 0.40 0.52 0.66 0.68 0.62 0.57 0.65 0.84 0.70 0.73 0.77 0.79 0.72 0.59 0.52
0.34 0.38 0.43 0.42 0.43 0.48 0.49 0.49 0.46 0.41 0.56 0.94 1.09 1.09 1.44 1.29 1.13 0.94 0.87 0.84 0.82 0.71 0.62 0.57 0.49 0.45 0.40 0.50 0.77 1.00 1.34 1.57 1.94 1.80 1.27 1.23 1.10 0.77 0.52 0.46 0.54 0.48 0.39 0.43 0.37 0.34 0.32 0.32 0.36 0.47 0.57 0.67 0.62 0.58 0.57 0.68 0.51 0.54 0.49 0.63 0.72 0.69 0.61
0.42 0.41 0.35 0.32 0.36 0.42 0.43 0.42 0.40 0.44 0.50 0.75 0.98 1.09 1.31 1.28 1.13 0.89 0.93 0.96 0.77 0.60 0.52 0.44 0.42 0.43 0.43 0.47 0.69 1.08 1.61 1.70 1.89 2.09 1.45 1.29 1.48 1.49 1.28 0.75 0.64 0.54 0.52 0.47 0.45 0.43 0.40 0.39 0.39 0.41 0.46 0.58 0.62 0.56 0.65 0.58 0.50 0.42 0.36 0.33 0.37 0.47 0.53
0.41 0.37 0.34 0.33 0.37 0.39 0.38 0.37 0.37 0.47 0.42 0.51 0.79 0.95 1.14 1.27 1.29 1.22 0.94 0.89 0.78 0.60 0.48 0.41 0.41 0.40 0.46 0.60 1.10 1.44 1.71 1.81 2.02 1.81 1.68 1.80 1.62 1.52 1.27 1.16 1.11 0.92 0.79 0.66 0.54 0.50 0.53 0.45 0.38 0.40 0.39 0.38 0.48 0.47 0.41 0.45 0.44 0.43 0.40 0.40 0.33 0.30 0.31
0.41 0.34 0.35 0.37 0.38 0.37 0.35 0.34 0.39 0.40 0.35 0.38 0.54 0.83 1.10 1.13 1.28 1.21 0.93 0.82 0.71 0.59 0.54 0.49 0.45 0.50 0.67 1.02 1.08 1.22 1.48 1.69 1.54 1.51 1.75 1.82 1.58 1.15 1.10 1.19 1.25 1.19 1.07 0.86 0.69 0.61 0.51 0.43 0.32 0.31 0.30 0.31 0.28 0.38 0.44 0.44 0.46 0.41 0.41 0.40 0.35 0.29 0.28
0.33 0.35 0.36 0.36 0.36 0.37 0.36 0.36 0.38 0.34 0.34 0.35 0.40 0.53 0.73 0.85 0.97 0.92 0.80 0.72 0.60 0.57 0.56 0.53 0.62 0.75 0.86 0.97 1.08 1.14 1.06 1.10 1.01 1.05 1.33 1.20 1.18 1.20 1.15 1.21 1.09 0.96 0.92 1.00 0.92 0.69 0.49 0.33 0.26 0.24 0.24 0.24 0.29 0.35 0.47 0.54 0.55 0.53 0.45 0.44 0.41 0.38 0.30
0.37 0.35 0.33 0.34 0.33 0.37 0.40 0.43 0.37 0.31 0.33 0.37 0.40 0.43 0.52 0.64 0.62 0.64 0.60 0.63 0.55 0.44 0.41 0.45 0.60 0.50 0.52 0.58 0.65 0.74 0.88 1.09 0.83 0.73 0.72 0.85 0.97 0.99 1.10 1.11 0.97 0.78 0.74 0.73 0.60 0.54 0.48 0.37 0.28 0.30 0.33 0.29 0.33 0.41 0.48 0.54 0.59 0.65 0.61 0.54 0.54 0.52 0.48
0.39 0.39 0.40 0.40 0.38 0.41 0.42 0.42 0.33 0.32 0.35 0.43 0.51 0.52 0.53 0.57 0.55 0.59 0.52 0.50 0.56 0.51 0.44 0.42 0.45 0.46 0.49 0.50 0.53 0.64 0.74 0.69 0.59 0.61 0.77 0.67 0.63 0.85 0.96 1.19 0.86 0.67 0.64 0.54 0.47 0.44 0.38 0.36 0.43 0.40 0.48 0.51 0.47 0.47 0.43 0.42 0.46 0.55 0.55 0.50 0.48 0.47 0.47
0.57 0.61 0.62 0.65 0.58 0.58 0.49 0.40 0.34 0.34 0.44 0.62 0.66 0.66 0.59 0.56 0.56 0.64 0.64 0.49 0.48 0.49 0.46 0.48 0.50 0.52 0.51 0.61 0.65 0.66 0.67 0.65 0.63 0.56 0.50 0.50 0.56 0.64 0.72 0.84 0.84 0.79 0.78 0.64 0.61 0.64 0.54 0.57 0.57 0.61 0.56 0.50 0.47 0.38 0.34 0.37 0.43 0.45 0.54 0.58 0.56 0.67 0.61
1.02 0.92 0.92 0.79 0.76 0.82 0.71 0.58 0.56 0.52 0.60 0.72 0.75 0.77 0.75 0.76 0.69 0.64 0.61 0.49 0.49 0.55 0.54 0.50 0.51 0.51 0.50 0.48 0.48 0.50 0.52 0.50 0.48 0.45 0.47 0.54 0.57 0.54 0.56 0.58 0.72 0.79 0.69 0.57 0.61 0.70 0.68 0.68 0.66 0.60 0.52 0.53 0.53 0.44 0.37 0.38 0.45 0.48 0.49 0.59 0.68 0.73 0.59
1.27 1.22 1.16 1.01 0.76 0.78 0.94 0.87 0.72 0.66 0.88 0.96 1.00 1.14 0.95 0.86 0.93 0.83 0.68 0.57 0.53 0.51 0.52 0.48 0.43 0.42 0.41 0.39 0.37 0.38 0.37 0.37 0.38 0.40 0.41 0.46 0.51 0.50 0.51 0.53 0.57 0.61 0.58 0.55 0.64 0.61 0.66 0.63 0.60 0.54 0.52 0.52 0.52 0.49 0.42 0.40 0.48 0.53 0.55 0.64 0.76 0.75 0.65
1.17 1.23 1.03 0.98 1.07 0.91 0.65 0.61 0.56 0.57 0.85 1.00 1.23 1.23 1.09 1.14 1.03 0.96 0.86 0.70 0.63 0.56 0.47 0.43 0.38 0.37 0.35 0.33 0.32 0.33 0.33 0.33 0.35 0.35 0.36 0.39 0.41 0.43 0.46 0.49 0.50 0.55 0.54 0.54 0.57 0.61 0.65 0.59 0.57 0.52 0.45 0.44 0.41 0.41 0.46 0.51 0.56 0.52 0.59 0.62 0.60 0.60 0.53
0.93 1.04 1.16 0.98 1.03 1.15 0.92 0.73 0.68 0.69 1.00 1.17 1.36 1.37 1.16 1.12 1.17 1.08 0.92 0.72 0.70 0.62 0.48 0.40 0.35 0.35 0.34 0.32 0.32 0.30 0.28 0.32 0.36 0.37 0.38 0.36 0.33 0.30 0.31 0.35 0.42 0.48 0.50 0.51 0.53 0.53 0.57 0.62 0.62 0.57 0.50 0.43 0.39 0.39 0.41 0.48 0.59 0.64 0.74 0.70 0.62 0.56 0.48
0.59 0.68 0.82 0.87 1.04 1.15 1.12 0.90 0.86 0.87 1.04 1.14 1.24 1.18 0.96 0.95 0.94 0.80 0.73 0.62 0.51 0.45 0.43 0.39 0.36 0.35 0.34 0.33 0.31 0.31 0.32 0.34 0.37 0.33 0.32 0.31 0.32 0.28 0.25 0.26 0.27 0.34 0.41 0.45 0.47 0.49 0.51 0.62 0.56 0.60 0.57 0.55 0.46 0.45 0.43 0.39 0.41 0.44 0.47 0.56 0.63 0.58 0.51
0.44 0.41 0.45 0.47 0.62 0.76 0.81 0.73 0.72 0.73 0.73 0.82 0.91 0.90 0.91 0.92 0.79 0.68 0.71 0.59 0.50 0.43 0.40 0.36 0.34 0.34 0.35 0.35 0.35 0.35 0.35 0.36 0.37 0.31 0.28 0.25 0.24 0.25 0.24 0.22 0.23 0.28 0.33 0.35 0.40 0.44 0.43 0.47 0.50 0.58 0.60 0.63 0.56 0.49 0.43 0.44 0.40 0.39 0.46 0.53 0.50 0.46 0.45
0.34 0.31 0.36 0.45 0.48 0.60 0.65 0.55 0.53 0.62 0.74 0.84 0.86 0.85 0.97 0.77 0.68 0.71 0.57 0.43 0.41 0.41 0.39 0.36 0.33 0.32 0.31 0.31 0.32 0.33 0.34 0.33 0.34 0.30 0.28 0.26 0.24 0.21 0.22 0.25 0.23 0.23 0.25 0.27 0.31 0.35 0.37 0.39 0.44 0.48 0.49 0.50 0.51 0.52 0.52 0.46 0.43 0.43 0.42 0.42 0.45 0.42 0.39
0.37 0.33 0.32 0.40 0.39 0.43 0.57 0.58 0.53 0.56 0.72 0.91 0.90 0.90 0.79 0.72 0.60 0.49 0.43 0.37 0.35 0.36 0.37 0.36 0.36 0.35 0.34 0.36 0.37 0.37 0.35 0.34 0.34 0.34 0.33 0.31 0.28 0.26 0.24 0.25 0.26 0.24 0.24 0.23 0.24 0.27 0.30 0.34 0.38 0.43 0.49 0.49 0.46 0.43 0.41 0.38 0.37 0.37 0.38 0.39 0.40 0.44 0.41